Terminal Aerodrome Forecast
Issued by NWS

Home | Current Version | Previous Version | Text Only | Print | Product List | Glossary On
Versions: 1 2 3 4 5 6 7 8 9 10 11 12 13 14 15 16 17 18 19 20 21 22 23 24 25 26 27 28 29 30 31 32 33 34 35 36 37 38 39 40 41 42 43 44 45 46 47 48 49 50
000
FTUS43 KMKX 012330
TAFENW
TAF
KENW 012330Z 0200/0224 25009KT P6SM SCT040 BKN050
      TEMPO 0200/0201 6SM -SHRA
     FM020200 26006KT P6SM SCT070
     FM021700 23008KT P6SM SCT050=

USA.gov is the U.S. government's official web portal to all federal, state and local government web resources and services.